Time,TemperatureF,DewpointF,PressureIn,WindDirection,WindDirectionDegrees,WindSpeedMPH,WindSpeedGustMPH,Humidity,HourlyPrecipIn,Conditions,Clouds,dailyrainin,SolarRadiationWatts/m^2,SoftwareType,DateUTC
2013-03-26 00:00:00,35.9,24.5,29.83,West,270,1.0,-999.0,63,0.00,,,0.00,0,Wunderground v.1.15,2013-03-26 04:00:00,
2013-03-26 00:01:00,35.9,24.5,29.83,West,270,1.0,-999.0,63,0.00,,,0.00,0,Wunderground v.1.15,2013-03-26 04:01:00,
2013-03-26 00:02:00,35.9,24.5,29.83,West,270,1.0,-999.0,63,0.00,,,0.00,0,Wunderground v.1.15,2013-03-26 04:02:00,
2013-03-26 00:03:00,35.9,24.5,29.82,West,261,1.0,-999.0,63,0.00,,,0.00,0,Wunderground v.1.15,2013-03-26 04:03:00,
2013-03-26 00:08:00,35.8,24.4,29.82,West,261,1.0,-999.0,63,0.00,,,0.00,0,Wunderground v.1.15,2013-03-26 04:08:00,
2013-03-26 00:14:00,35.7,24.7,29.83,West,261,1.0,-999.0,64,0.00,,,0.00,0,Wunderground v.1.15,2013-03-26 04:14:00,
2013-03-26 00:19:00,35.7,24.7,29.83,West,261,1.0,-999.0,64,0.00,,,0.00,0,Wunderground v.1.15,2013-03-26 04:19:00,
2013-03-26 00:25:00,35.7,24.7,29.83,West,261,1.0,-999.0,64,0.00,,,0.00,0,Wunderground v.1.15,2013-03-26 04:25:00,
2013-03-26 00:30:00,35.8,25.2,29.83,West,261,2.0,-999.0,65,0.00,,,0.00,0,Wunderground v.1.15,2013-03-26 04:30:00,
2013-03-26 00:37:00,35.8,24.8,29.83,West,276,2.0,-999.0,64,0.00,,,0.00,0,Wunderground v.1.15,2013-03-26 04:37:00,
2013-03-26 00:42:00,35.8,24.8,29.83,WNW,298,2.0,-999.0,64,0.00,,,0.00,0,Wunderground v.1.15,2013-03-26 04:42:00,
2013-03-26 00:47:00,35.9,24.9,29.83,WSW,258,2.0,-999.0,64,0.00,,,0.00,0,Wunderground v.1.15,2013-03-26 04:47:00,
2013-03-26 00:53:00,35.9,24.9,29.83,West,269,2.0,-999.0,64,0.00,,,0.00,0,Wunderground v.1.15,2013-03-26 04:53:00,
2013-03-26 00:59:00,35.9,24.9,29.83,WSW,254,2.0,-999.0,64,0.00,,,0.00,0,Wunderground v.1.15,2013-03-26 04:59:00,
2013-03-26 01:04:00,35.9,24.9,29.83,WSW,252,2.0,-999.0,64,0.00,,,0.00,0,Wunderground v.1.15,2013-03-26 05:04:00,
2013-03-26 01:10:00,35.9,24.9,29.83,West,281,2.0,-999.0,64,0.00,,,0.00,0,Wunderground v.1.15,2013-03-26 05:10:00,
2013-03-26 01:15:00,35.8,24.8,29.83,West,281,1.0,-999.0,64,0.00,,,0.00,0,Wunderground v.1.15,2013-03-26 05:15:00,
2013-03-26 01:20:00,35.8,24.8,29.83,WSW,257,1.0,-999.0,64,0.00,,,0.00,0,Wunderground v.1.15,2013-03-26 05:20:00,
2013-03-26 01:26:00,35.7,24.7,29.83,WSW,257,1.0,-999.0,64,0.00,,,0.00,0,Wunderground v.1.15,2013-03-26 05:26:00,
2013-03-26 01:32:00,35.7,25.1,29.83,WSW,254,2.0,-999.0,65,0.00,,,0.00,0,Wunderground v.1.15,2013-03-26 05:32:00,
2013-03-26 01:37:00,35.7,25.1,29.83,West,259,2.0,-999.0,65,0.00,,,0.00,0,Wunderground v.1.15,2013-03-26 05:37:00,
2013-03-26 01:43:00,35.6,25.0,29.84,West,259,1.0,-999.0,65,0.00,,,0.00,0,Wunderground v.1.15,2013-03-26 05:43:00,
2013-03-26 01:49:00,35.5,24.9,29.84,West,259,0.0,-999.0,65,0.00,,,0.00,0,Wunderground v.1.15,2013-03-26 05:49:00,
2013-03-26 01:54:00,35.5,25.3,29.84,West,259,0.0,-999.0,66,0.00,,,0.00,0,Wunderground v.1.15,2013-03-26 05:54:00,
2013-03-26 02:00:00,35.5,25.3,29.84,West,259,1.0,-999.0,66,0.00,,,0.00,0,Wunderground v.1.15,2013-03-26 06:00:00,
2013-03-26 02:05:00,35.4,25.2,29.84,SW,227,1.0,-999.0,66,0.00,,,0.00,0,Wunderground v.1.15,2013-03-26 06:05:00,
2013-03-26 02:12:00,35.4,25.5,29.84,West,271,2.0,-999.0,67,0.00,,,0.00,0,Wunderground v.1.15,2013-03-26 06:12:00,
2013-03-26 02:18:00,35.3,25.4,29.84,WSW,250,2.0,-999.0,67,0.00,,,0.00,0,Wunderground v.1.15,2013-03-26 06:18:00,
2013-03-26 02:23:00,35.3,25.4,29.84,WSW,257,2.0,-999.0,67,0.00,,,0.00,0,Wunderground v.1.15,2013-03-26 06:23:00,
2013-03-26 02:28:00,35.3,25.8,29.84,WNW,288,3.0,-999.0,68,0.00,,,0.00,0,Wunderground v.1.15,2013-03-26 06:28:00,
2013-03-26 02:34:00,35.3,25.8,29.84,West,259,3.0,-999.0,68,0.00,,,0.00,0,Wunderground v.1.15,2013-03-26 06:34:00,
2013-03-26 02:39:00,35.3,25.8,29.84,WSW,242,3.0,-999.0,68,0.00,,,0.00,0,Wunderground v.1.15,2013-03-26 06:39:00,
2013-03-26 02:45:00,35.2,26.0,29.85,West,266,3.0,-999.0,69,0.00,,,0.00,0,Wunderground v.1.15,2013-03-26 06:45:00,
2013-03-26 02:50:00,35.2,26.0,29.84,West,279,3.0,-999.0,69,0.00,,,0.00,0,Wunderground v.1.15,2013-03-26 06:50:00,
2013-03-26 02:55:00,35.2,26.0,29.84,NW,311,3.0,-999.0,69,0.00,,,0.00,0,Wunderground v.1.15,2013-03-26 06:55:00,
2013-03-26 03:01:00,35.1,25.9,29.84,West,281,3.0,-999.0,69,0.00,,,0.00,0,Wunderground v.1.15,2013-03-26 07:01:00,
2013-03-26 03:07:00,35.1,25.9,29.84,West,281,3.0,-999.0,69,0.00,,,0.00,0,Wunderground v.1.15,2013-03-26 07:07:00,
2013-03-26 03:12:00,35.1,25.9,29.84,WNW,297,2.0,-999.0,69,0.00,,,0.00,0,Wunderground v.1.15,2013-03-26 07:12:00,
2013-03-26 03:18:00,35.0,25.9,29.84,West,276,2.0,-999.0,69,0.00,,,0.00,0,Wunderground v.1.15,2013-03-26 07:18:00,
2013-03-26 03:23:00,35.0,25.9,29.85,WNW,290,2.0,-999.0,69,0.00,,,0.00,0,Wunderground v.1.15,2013-03-26 07:23:00,
2013-03-26 03:28:00,34.9,25.8,29.84,West,261,1.0,-999.0,69,0.00,,,0.00,0,Wunderground v.1.15,2013-03-26 07:28:00,
2013-03-26 03:34:00,34.9,25.8,29.84,WNW,283,1.0,-999.0,69,0.00,,,0.00,0,Wunderground v.1.15,2013-03-26 07:34:00,
2013-03-26 03:39:00,34.8,25.7,29.85,West,281,2.0,-999.0,69,0.00,,,0.00,0,Wunderground v.1.15,2013-03-26 07:39:00,
2013-03-26 03:44:00,34.7,25.6,29.85,West,261,2.0,-999.0,69,0.00,,,0.00,0,Wunderground v.1.15,2013-03-26 07:44:00,
2013-03-26 03:50:00,34.6,25.5,29.85,WNW,296,2.0,-999.0,69,0.00,,,0.00,0,Wunderground v.1.15,2013-03-26 07:50:00,
2013-03-26 03:55:00,34.6,25.5,29.85,WSW,254,2.0,-999.0,69,0.00,,,0.00,0,Wunderground v.1.15,2013-03-26 07:55:00,
2013-03-26 04:00:00,34.6,25.5,29.85,West,277,2.0,-999.0,69,0.00,,,0.00,0,Wunderground v.1.15,2013-03-26 08:00:00,
2013-03-26 04:06:00,34.6,25.5,29.85,WNW,288,2.0,-999.0,69,0.00,,,0.00,0,Wunderground v.1.15,2013-03-26 08:06:00,
2013-03-26 04:11:00,34.7,25.6,29.85,West,266,2.0,-999.0,69,0.00,,,0.00,0,Wunderground v.1.15,2013-03-26 08:11:00,
2013-03-26 04:17:00,34.7,25.6,29.85,WSW,255,2.0,-999.0,69,0.00,,,0.00,0,Wunderground v.1.15,2013-03-26 08:17:00,
2013-03-26 04:22:00,34.7,25.6,29.85,NW,319,1.0,-999.0,69,0.00,,,0.00,0,Wunderground v.1.15,2013-03-26 08:22:00,
2013-03-26 04:27:00,34.8,25.3,29.85,WSW,257,1.0,-999.0,68,0.00,,,0.00,0,Wunderground v.1.15,2013-03-26 08:27:00,
2013-03-26 04:33:00,34.8,25.3,29.85,West,273,1.0,-999.0,68,0.00,,,0.00,0,Wunderground v.1.15,2013-03-26 08:33:00,
2013-03-26 04:38:00,34.9,25.4,29.85,West,261,1.0,-999.0,68,0.00,,,0.00,0,Wunderground v.1.15,2013-03-26 08:38:00,
2013-03-26 04:44:00,34.9,25.4,29.85,WSW,256,1.0,-999.0,68,0.00,,,0.00,0,Wunderground v.1.15,2013-03-26 08:44:00,
2013-03-26 04:50:00,35.0,25.5,29.85,WSW,257,2.0,-999.0,68,0.00,,,0.00,0,Wunderground v.1.15,2013-03-26 08:50:00,
2013-03-26 04:55:00,35.0,25.5,29.85,West,274,1.0,-999.0,68,0.00,,,0.00,0,Wunderground v.1.15,2013-03-26 08:55:00,
2013-03-26 05:00:00,35.1,25.6,29.85,West,274,1.0,-999.0,68,0.00,,,0.00,0,Wunderground v.1.15,2013-03-26 09:00:00,
2013-03-26 05:06:00,35.0,25.5,29.85,WNW,295,0.0,-999.0,68,0.00,,,0.00,0,Wunderground v.1.15,2013-03-26 09:06:00,
2013-03-26 05:11:00,35.0,25.5,29.85,WNW,295,0.0,-999.0,68,0.00,,,0.00,0,Wunderground v.1.15,2013-03-26 09:11:00,
2013-03-26 05:17:00,34.8,25.3,29.85,WNW,295,0.0,-999.0,68,0.00,,,0.00,0,Wunderground v.1.15,2013-03-26 09:17:00,
2013-03-26 05:22:00,34.7,25.2,29.86,WNW,295,0.0,-999.0,68,0.00,,,0.00,0,Wunderground v.1.15,2013-03-26 09:22:00,
2013-03-26 05:27:00,34.6,25.1,29.86,WNW,295,0.0,-999.0,68,0.00,,,0.00,0,Wunderground v.1.15,2013-03-26 09:27:00,
2013-03-26 05:33:00,34.4,25.3,29.86,WNW,295,0.0,-999.0,69,0.00,,,0.00,0,Wunderground v.1.15,2013-03-26 09:33:00,
2013-03-26 05:39:00,34.4,25.3,29.86,WNW,295,0.0,-999.0,69,0.00,,,0.00,0,Wunderground v.1.15,2013-03-26 09:39:00,
2013-03-26 05:44:00,34.4,25.3,29.86,WNW,295,0.0,-999.0,69,0.00,,,0.00,0,Wunderground v.1.15,2013-03-26 09:44:00,
2013-03-26 05:50:00,34.4,25.3,29.86,WNW,295,0.0,-999.0,69,0.00,,,0.00,0,Wunderground v.1.15,2013-03-26 09:50:00,
2013-03-26 05:56:00,34.2,25.1,29.86,WNW,295,0.0,-999.0,69,0.00,,,0.00,0,Wunderground v.1.15,2013-03-26 09:56:00,
2013-03-26 06:01:00,34.1,25.0,29.87,WNW,295,0.0,-999.0,69,0.00,,,0.00,0,Wunderground v.1.15,2013-03-26 10:01:00,
2013-03-26 06:06:00,34.1,25.3,29.87,WNW,295,0.0,-999.0,70,0.00,,,0.00,0,Wunderground v.1.15,2013-03-26 10:06:00,
2013-03-26 06:12:00,34.1,25.7,29.87,WNW,295,0.0,-999.0,71,0.00,,,0.00,0,Wunderground v.1.15,2013-03-26 10:12:00,
2013-03-26 06:18:00,34.2,25.4,29.87,WNW,294,0.0,-999.0,70,0.00,,,0.00,0,Wunderground v.1.15,2013-03-26 10:18:00,
2013-03-26 06:24:00,34.2,25.4,29.87,WNW,294,0.0,-999.0,70,0.00,,,0.00,0,Wunderground v.1.15,2013-03-26 10:24:00,
2013-03-26 06:30:00,34.3,25.5,29.88,WNW,294,0.0,-999.0,70,0.00,,,0.00,0,Wunderground v.1.15,2013-03-26 10:30:00,
2013-03-26 06:37:00,34.4,25.6,29.88,WNW,294,0.0,-999.0,70,0.00,,,0.00,0,Wunderground v.1.15,2013-03-26 10:37:00,
2013-03-26 06:42:00,34.4,26.0,29.88,WNW,294,0.0,-999.0,71,0.00,,,0.00,0,Wunderground v.1.15,2013-03-26 10:42:00,
2013-03-26 06:47:00,34.4,25.6,29.88,WNW,294,0.0,-999.0,70,0.00,,,0.00,0,Wunderground v.1.15,2013-03-26 10:47:00,
2013-03-26 06:53:00,34.4,25.6,29.88,WNW,294,0.0,-999.0,70,0.00,,,0.00,0,Wunderground v.1.15,2013-03-26 10:53:00,
2013-03-26 06:58:00,34.4,25.6,29.88,WNW,294,0.0,-999.0,70,0.00,,,0.00,0,Wunderground v.1.15,2013-03-26 10:58:00,
2013-03-26 07:04:00,34.4,25.6,29.88,WNW,294,0.0,-999.0,70,0.00,,,0.00,0,Wunderground v.1.15,2013-03-26 11:04:00,
2013-03-26 07:09:00,34.4,25.6,29.88,WNW,294,0.0,-999.0,70,0.00,,,0.00,0,Wunderground v.1.15,2013-03-26 11:09:00,
2013-03-26 07:15:00,34.4,25.6,29.88,WNW,294,0.0,-999.0,70,0.00,,,0.00,5,Wunderground v.1.15,2013-03-26 11:15:00,
2013-03-26 07:22:00,34.4,25.6,29.88,WNW,294,0.0,-999.0,70,0.00,,,0.00,9,Wunderground v.1.15,2013-03-26 11:22:00,
2013-03-26 07:28:00,34.3,25.5,29.88,WNW,294,0.0,-999.0,70,0.00,,,0.00,12,Wunderground v.1.15,2013-03-26 11:28:00,
2013-03-26 07:33:00,34.0,25.2,29.89,WNW,294,0.0,-999.0,70,0.00,,,0.00,16,Wunderground v.1.15,2013-03-26 11:33:00,
2013-03-26 07:39:00,33.8,25.0,29.89,WNW,294,0.0,-999.0,70,0.00,,,0.00,21,Wunderground v.1.15,2013-03-26 11:39:00,
2013-03-26 07:44:00,33.5,25.1,29.89,WNW,294,0.0,-999.0,71,0.00,,,0.00,23,Wunderground v.1.15,2013-03-26 11:44:00,
2013-03-26 07:50:00,33.3,24.9,29.89,WNW,294,0.0,-999.0,71,0.00,,,0.00,26,Wunderground v.1.15,2013-03-26 11:50:00,
2013-03-26 07:55:00,33.1,25.1,29.89,WNW,294,0.0,-999.0,72,0.00,,,0.00,35,Wunderground v.1.15,2013-03-26 11:55:00,
2013-03-26 08:02:00,32.8,24.8,29.90,WNW,294,0.0,-999.0,72,0.00,,,0.00,42,Wunderground v.1.15,2013-03-26 12:02:00,
2013-03-26 08:08:00,32.6,24.6,29.90,WNW,294,0.0,-999.0,72,0.00,,,0.00,42,Wunderground v.1.15,2013-03-26 12:08:00,
2013-03-26 08:13:00,32.5,24.8,29.90,WNW,294,0.0,-999.0,73,0.00,,,0.00,44,Wunderground v.1.15,2013-03-26 12:13:00,
2013-03-26 08:19:00,32.4,25.4,29.90,WNW,294,0.0,-999.0,75,0.00,,,0.00,105,Wunderground v.1.15,2013-03-26 12:19:00,
2013-03-26 08:24:00,32.4,25.4,29.91,WNW,294,0.0,-999.0,75,0.00,,,0.00,186,Wunderground v.1.15,2013-03-26 12:24:00,
2013-03-26 08:30:00,33.3,26.5,29.91,WNW,294,0.0,-999.0,76,0.00,,,0.00,206,Wunderground v.1.15,2013-03-26 12:30:00,
2013-03-26 08:35:00,35.1,27.0,29.91,WNW,294,0.0,-999.0,72,0.00,,,0.00,176,Wunderground v.1.15,2013-03-26 12:35:00,
2013-03-26 08:40:00,35.7,27.2,29.91,WNW,294,0.0,-999.0,71,0.00,,,0.00,146,Wunderground v.1.15,2013-03-26 12:40:00,
2013-03-26 08:46:00,36.2,27.0,29.91,WNW,294,0.0,-999.0,69,0.00,,,0.00,185,Wunderground v.1.15,2013-03-26 12:46:00,
2013-03-26 08:51:00,36.7,27.1,29.92,West,274,1.0,-999.0,68,0.00,,,0.00,146,Wunderground v.1.15,2013-03-26 12:51:00,
2013-03-26 08:56:00,37.0,27.1,29.92,WNW,286,2.0,-999.0,67,0.00,,,0.00,62,Wunderground v.1.15,2013-03-26 12:56:00,
2013-03-26 09:02:00,37.2,27.2,29.92,WNW,286,2.0,-999.0,67,0.00,,,0.00,174,Wunderground v.1.15,2013-03-26 13:02:00,
2013-03-26 09:07:00,37.4,27.1,29.92,WNW,301,2.0,-999.0,66,0.00,,,0.00,274,Wunderground v.1.15,2013-03-26 13:07:00,
2013-03-26 09:12:00,37.9,27.2,29.92,NW,325,3.0,-999.0,65,0.00,,,0.00,279,Wunderground v.1.15,2013-03-26 13:12:00,
2013-03-26 09:18:00,38.3,27.2,29.92,WNW,284,2.0,-999.0,64,0.00,,,0.00,190,Wunderground v.1.15,2013-03-26 13:18:00,
2013-03-26 09:23:00,38.6,27.1,29.92,West,263,2.0,-999.0,63,0.00,,,0.00,243,Wunderground v.1.15,2013-03-26 13:23:00,
2013-03-26 09:28:00,38.9,27.0,29.92,West,279,3.0,-999.0,62,0.00,,,0.00,179,Wunderground v.1.15,2013-03-26 13:28:00,
2013-03-26 09:34:00,39.4,27.5,29.92,North,10,3.0,-999.0,62,0.00,,,0.00,366,Wunderground v.1.15,2013-03-26 13:34:00,
2013-03-26 09:39:00,39.8,27.4,29.93,WSW,252,2.0,-999.0,61,0.00,,,0.00,380,Wunderground v.1.15,2013-03-26 13:39:00,
2013-03-26 09:44:00,40.3,27.5,29.92,NW,324,2.0,-999.0,60,0.00,,,0.00,385,Wunderground v.1.15,2013-03-26 13:44:00,
2013-03-26 09:50:00,40.6,27.8,29.93,WNW,288,3.0,-999.0,60,0.00,,,0.00,540,Wunderground v.1.15,2013-03-26 13:50:00,
2013-03-26 09:55:00,40.5,27.7,29.93,ENE,63,4.0,-999.0,60,0.00,,,0.00,550,Wunderground v.1.15,2013-03-26 13:55:00,
2013-03-26 10:00:00,41.5,28.6,29.93,West,269,3.0,-999.0,60,0.00,,,0.00,577,Wunderground v.1.15,2013-03-26 14:00:00,
2013-03-26 10:06:00,41.7,28.0,29.93,NW,319,2.0,-999.0,58,0.00,,,0.00,610,Wunderground v.1.15,2013-03-26 14:06:00,
2013-03-26 10:11:00,41.7,27.6,29.93,NNE,12,4.0,-999.0,57,0.00,,,0.00,213,Wunderground v.1.15,2013-03-26 14:11:00,
2013-03-26 10:16:00,41.2,27.5,29.93,NE,36,5.0,-999.0,58,0.00,,,0.00,121,Wunderground v.1.15,2013-03-26 14:16:00,
2013-03-26 10:22:00,41.4,27.7,29.94,NNW,337,6.0,-999.0,58,0.00,,,0.00,158,Wunderground v.1.15,2013-03-26 14:22:00,
2013-03-26 10:27:00,41.6,27.9,29.94,NNW,332,5.0,-999.0,58,0.00,,,0.00,162,Wunderground v.1.15,2013-03-26 14:27:00,
2013-03-26 10:32:00,41.8,28.1,29.94,NNW,331,4.0,-999.0,58,0.00,,,0.00,737,Wunderground v.1.15,2013-03-26 14:32:00,
2013-03-26 10:38:00,42.4,28.7,29.94,North,5,4.0,-999.0,58,0.00,,,0.00,163,Wunderground v.1.15,2013-03-26 14:38:00,
2013-03-26 10:44:00,43.4,29.6,29.94,North,349,3.0,-999.0,58,0.00,,,0.00,828,Wunderground v.1.15,2013-03-26 14:44:00,
2013-03-26 10:50:00,43.9,29.2,29.94,NW,313,2.0,-999.0,56,0.00,,,0.00,842,Wunderground v.1.15,2013-03-26 14:50:00,
2013-03-26 10:56:00,43.3,28.6,29.94,NE,51,3.0,-999.0,56,0.00,,,0.00,881,Wunderground v.1.15,2013-03-26 14:56:00,
2013-03-26 11:02:00,43.7,28.6,29.94,NW,323,3.0,-999.0,55,0.00,,,0.00,881,Wunderground v.1.15,2013-03-26 15:02:00,
2013-03-26 11:08:00,43.6,28.9,29.94,North,351,4.0,-999.0,56,0.00,,,0.00,958,Wunderground v.1.15,2013-03-26 15:08:00,
2013-03-26 11:13:00,43.4,28.3,29.95,NNW,347,4.0,-999.0,55,0.00,,,0.00,346,Wunderground v.1.15,2013-03-26 15:13:00,
2013-03-26 11:19:00,43.6,28.5,29.95,NNW,343,4.0,-999.0,55,0.00,,,0.00,306,Wunderground v.1.15,2013-03-26 15:19:00,
2013-03-26 11:24:00,43.7,28.6,29.95,NE,37,4.0,-999.0,55,0.00,,,0.00,320,Wunderground v.1.15,2013-03-26 15:24:00,
2013-03-26 11:30:00,43.9,29.2,29.95,North,350,3.0,-999.0,56,0.00,,,0.00,322,Wunderground v.1.15,2013-03-26 15:30:00,
2013-03-26 11:35:00,44.2,29.5,29.95,WNW,294,2.0,-999.0,56,0.00,,,0.00,512,Wunderground v.1.15,2013-03-26 15:35:00,
2013-03-26 11:40:00,44.5,29.3,29.95,NW,320,3.0,-999.0,55,0.00,,,0.00,332,Wunderground v.1.15,2013-03-26 15:40:00,
2013-03-26 11:47:00,44.6,29.0,29.95,NNE,20,3.0,-999.0,54,0.00,,,0.00,374,Wunderground v.1.15,2013-03-26 15:47:00,
2013-03-26 11:53:00,44.2,28.6,29.95,WSW,251,3.0,-999.0,54,0.00,,,0.00,338,Wunderground v.1.15,2013-03-26 15:53:00,
2013-03-26 11:59:00,44.1,28.9,29.95,North,11,4.0,-999.0,55,0.00,,,0.00,264,Wunderground v.1.15,2013-03-26 15:59:00,
2013-03-26 12:04:00,44.3,29.1,29.95,NW,307,3.0,-999.0,55,0.00,,,0.00,276,Wunderground v.1.15,2013-03-26 16:04:00,
2013-03-26 12:10:00,44.2,28.6,29.95,NW,317,3.0,-999.0,54,0.00,,,0.00,313,Wunderground v.1.15,2013-03-26 16:10:00,
2013-03-26 12:15:00,44.2,29.0,29.95,NNW,327,4.0,-999.0,55,0.00,,,0.00,193,Wunderground v.1.15,2013-03-26 16:15:00,
2013-03-26 12:21:00,44.1,28.5,29.96,West,281,3.0,-999.0,54,0.00,,,0.00,125,Wunderground v.1.15,2013-03-26 16:21:00,
2013-03-26 12:27:00,44.0,28.4,29.96,NW,322,4.0,-999.0,54,0.00,,,0.00,171,Wunderground v.1.15,2013-03-26 16:27:00,
2013-03-26 12:33:00,43.9,28.3,29.96,NNW,336,4.0,-999.0,54,0.00,,,0.00,179,Wunderground v.1.15,2013-03-26 16:33:00,
2013-03-26 12:38:00,43.9,28.3,29.96,WNW,297,5.0,-999.0,54,0.00,,,0.00,137,Wunderground v.1.15,2013-03-26 16:38:00,
2013-03-26 12:44:00,43.8,28.2,29.96,North,355,4.0,-999.0,54,0.00,,,0.00,118,Wunderground v.1.15,2013-03-26 16:44:00,
2013-03-26 12:50:00,43.9,28.3,29.96,NW,316,3.0,-999.0,54,0.00,,,0.00,125,Wunderground v.1.15,2013-03-26 16:50:00,
2013-03-26 12:55:00,43.8,28.2,29.96,North,360,4.0,-999.0,54,0.00,,,0.00,127,Wunderground v.1.15,2013-03-26 16:55:00,
2013-03-26 13:00:00,43.7,28.1,29.96,NW,323,4.0,-999.0,54,0.00,,,0.00,127,Wunderground v.1.15,2013-03-26 17:00:00,
2013-03-26 13:06:00,43.7,28.1,29.96,North,355,3.0,-999.0,54,0.00,,,0.00,111,Wunderground v.1.15,2013-03-26 17:06:00,
2013-03-26 13:11:00,43.6,28.0,29.96,NNE,26,4.0,-999.0,54,0.00,,,0.00,120,Wunderground v.1.15,2013-03-26 17:11:00,
2013-03-26 13:16:00,43.6,28.0,29.96,NE,46,3.0,-999.0,54,0.00,,,0.00,134,Wunderground v.1.15,2013-03-26 17:16:00,
2013-03-26 13:23:00,43.7,28.1,29.96,NE,39,2.0,-999.0,54,0.00,,,0.00,174,Wunderground v.1.15,2013-03-26 17:23:00,
2013-03-26 13:28:00,43.7,28.1,29.97,NNE,14,3.0,-999.0,54,0.00,,,0.00,202,Wunderground v.1.15,2013-03-26 17:28:00,
2013-03-26 13:33:00,43.8,28.2,29.97,NW,319,3.0,-999.0,54,0.00,,,0.00,265,Wunderground v.1.15,2013-03-26 17:33:00,
2013-03-26 13:38:00,44.2,28.1,29.97,North,350,3.0,-999.0,53,0.00,,,0.00,336,Wunderground v.1.15,2013-03-26 17:38:00,
2013-03-26 13:44:00,44.4,28.3,29.96,NNW,329,3.0,-999.0,53,0.00,,,0.00,278,Wunderground v.1.15,2013-03-26 17:44:00,
2013-03-26 13:49:00,44.7,28.6,29.97,NNW,336,3.0,-999.0,53,0.00,,,0.00,213,Wunderground v.1.15,2013-03-26 17:49:00,
2013-03-26 13:54:00,44.2,28.6,29.97,NNW,336,3.0,-999.0,54,0.00,,,0.00,204,Wunderground v.1.15,2013-03-26 17:54:00,
2013-03-26 13:59:00,44.3,29.1,29.97,WNW,289,2.0,-999.0,55,0.00,,,0.00,174,Wunderground v.1.15,2013-03-26 17:59:00,
2013-03-26 14:05:00,44.4,28.3,29.97,NNW,342,1.0,-999.0,53,0.00,,,0.00,151,Wunderground v.1.15,2013-03-26 18:05:00,
2013-03-26 14:10:00,44.1,28.5,29.97,North,355,3.0,-999.0,54,0.00,,,0.00,116,Wunderground v.1.15,2013-03-26 18:10:00,
2013-03-26 14:16:00,43.9,28.3,29.97,West,265,4.0,-999.0,54,0.00,,,0.00,114,Wunderground v.1.15,2013-03-26 18:16:00,
2013-03-26 14:22:00,43.8,28.7,29.97,NNW,341,3.0,-999.0,55,0.00,,,0.00,130,Wunderground v.1.15,2013-03-26 18:22:00,
2013-03-26 14:27:00,43.6,28.0,29.97,WNW,301,3.0,-999.0,54,0.00,,,0.00,202,Wunderground v.1.15,2013-03-26 18:27:00,
2013-03-26 14:33:00,43.6,27.6,29.96,NW,304,4.0,-999.0,53,0.00,,,0.00,329,Wunderground v.1.15,2013-03-26 18:33:00,
2013-03-26 14:38:00,44.0,28.4,29.97,West,264,2.0,-999.0,54,0.00,,,0.00,357,Wunderground v.1.15,2013-03-26 18:38:00,
2013-03-26 14:44:00,44.5,28.4,29.96,WSW,257,2.0,-999.0,53,0.00,,,0.00,320,Wunderground v.1.15,2013-03-26 18:44:00,
2013-03-26 14:49:00,44.7,28.1,29.96,NW,317,3.0,-999.0,52,0.00,,,0.00,141,Wunderground v.1.15,2013-03-26 18:49:00,
2013-03-26 14:54:00,44.7,28.1,29.97,WNW,284,4.0,-999.0,52,0.00,,,0.00,107,Wunderground v.1.15,2013-03-26 18:54:00,
2013-03-26 15:00:00,44.4,28.3,29.97,North,355,5.0,-999.0,53,0.00,,,0.00,151,Wunderground v.1.15,2013-03-26 19:00:00,
2013-03-26 15:05:00,44.2,28.1,29.97,NW,304,5.0,-999.0,53,0.00,,,0.00,200,Wunderground v.1.15,2013-03-26 19:05:00,
2013-03-26 15:11:00,44.3,28.2,29.97,North,355,4.0,-999.0,53,0.00,,,0.00,271,Wunderground v.1.15,2013-03-26 19:11:00,
2013-03-26 15:17:00,44.8,28.7,29.96,West,260,2.0,-999.0,53,0.00,,,0.00,394,Wunderground v.1.15,2013-03-26 19:17:00,
2013-03-26 15:22:00,45.1,28.5,29.96,NNW,329,3.0,-999.0,52,0.00,,,0.00,239,Wunderground v.1.15,2013-03-26 19:22:00,
2013-03-26 15:27:00,45.0,28.4,29.97,NW,320,6.0,-999.0,52,0.00,,,0.00,155,Wunderground v.1.15,2013-03-26 19:27:00,
2013-03-26 15:33:00,44.5,28.0,29.97,NW,321,6.0,-999.0,52,0.00,,,0.00,149,Wunderground v.1.15,2013-03-26 19:33:00,
2013-03-26 15:39:00,44.3,28.2,29.97,NW,309,5.0,-999.0,53,0.00,,,0.00,186,Wunderground v.1.15,2013-03-26 19:39:00,
2013-03-26 15:44:00,44.2,28.1,29.97,NW,323,5.0,-999.0,53,0.00,,,0.00,178,Wunderground v.1.15,2013-03-26 19:44:00,
2013-03-26 15:50:00,44.2,28.1,29.97,NNW,342,5.0,-999.0,53,0.00,,,0.00,213,Wunderground v.1.15,2013-03-26 19:50:00,
2013-03-26 15:56:00,44.3,27.3,29.97,NNE,24,5.0,-999.0,51,0.00,,,0.00,241,Wunderground v.1.15,2013-03-26 19:56:00,
2013-03-26 16:02:00,44.5,27.5,29.97,NNW,340,4.0,-999.0,51,0.00,,,0.00,162,Wunderground v.1.15,2013-03-26 20:02:00,
2013-03-26 16:07:00,44.6,27.1,29.97,North,355,4.0,-999.0,50,0.00,,,0.00,107,Wunderground v.1.15,2013-03-26 20:07:00,
2013-03-26 16:13:00,44.7,27.7,29.97,North,5,3.0,-999.0,51,0.00,,,0.00,121,Wunderground v.1.15,2013-03-26 20:13:00,
2013-03-26 16:19:00,44.8,27.8,29.97,West,279,3.0,-999.0,51,0.00,,,0.00,211,Wunderground v.1.15,2013-03-26 20:19:00,
2013-03-26 16:25:00,45.0,27.5,29.98,WNW,299,5.0,-999.0,50,0.00,,,0.00,179,Wunderground v.1.15,2013-03-26 20:25:00,
2013-03-26 16:30:00,45.1,28.5,29.98,NNW,342,5.0,-999.0,52,0.00,,,0.00,199,Wunderground v.1.15,2013-03-26 20:30:00,
2013-03-26 16:36:00,45.1,28.5,29.98,NW,306,4.0,-999.0,52,0.00,,,0.00,192,Wunderground v.1.15,2013-03-26 20:36:00,
2013-03-26 16:42:00,45.1,28.5,29.98,West,276,5.0,-999.0,52,0.00,,,0.00,193,Wunderground v.1.15,2013-03-26 20:42:00,
2013-03-26 16:48:00,45.2,28.6,29.98,WNW,297,5.0,-999.0,52,0.00,,,0.00,241,Wunderground v.1.15,2013-03-26 20:48:00,
2013-03-26 16:53:00,45.1,28.0,29.98,NNE,26,5.0,-999.0,51,0.00,,,0.00,243,Wunderground v.1.15,2013-03-26 20:53:00,
2013-03-26 16:59:00,45.2,28.6,29.99,West,275,4.0,-999.0,52,0.00,,,0.00,174,Wunderground v.1.15,2013-03-26 20:59:00,
2013-03-26 17:05:00,45.0,27.9,29.99,North,351,4.0,-999.0,51,0.00,,,0.00,179,Wunderground v.1.15,2013-03-26 21:05:00,
2013-03-26 17:10:00,45.0,27.9,29.99,WNW,299,6.0,-999.0,51,0.00,,,0.00,206,Wunderground v.1.15,2013-03-26 21:10:00,
2013-03-26 17:17:00,44.9,27.8,29.99,NW,317,4.0,-999.0,51,0.00,,,0.00,185,Wunderground v.1.15,2013-03-26 21:17:00,
2013-03-26 17:22:00,44.9,28.3,29.99,WNW,297,3.0,-999.0,52,0.00,,,0.00,162,Wunderground v.1.15,2013-03-26 21:22:00,
2013-03-26 17:28:00,45.0,28.4,29.99,NW,319,3.0,-999.0,52,0.00,,,0.00,139,Wunderground v.1.15,2013-03-26 21:28:00,
2013-03-26 17:34:00,45.0,28.4,29.99,NNW,336,5.0,-999.0,52,0.00,,,0.00,120,Wunderground v.1.15,2013-03-26 21:34:00,
2013-03-26 17:39:00,44.7,27.7,30.00,NNW,331,6.0,-999.0,51,0.00,,,0.00,114,Wunderground v.1.15,2013-03-26 21:39:00,
2013-03-26 17:44:00,44.7,27.2,29.99,NW,322,5.0,-999.0,50,0.00,,,0.00,116,Wunderground v.1.15,2013-03-26 21:44:00,
2013-03-26 17:50:00,44.6,27.1,30.00,NW,306,5.0,-999.0,50,0.00,,,0.00,116,Wunderground v.1.15,2013-03-26 21:50:00,
2013-03-26 17:55:00,44.6,27.6,30.00,NW,317,4.0,-999.0,51,0.00,,,0.00,104,Wunderground v.1.15,2013-03-26 21:55:00,
2013-03-26 18:01:00,44.6,27.6,30.00,NNW,328,4.0,-999.0,51,0.00,,,0.00,90,Wunderground v.1.15,2013-03-26 22:01:00,
2013-03-26 18:07:00,44.5,28.0,30.01,West,268,5.0,-999.0,52,0.00,,,0.00,90,Wunderground v.1.15,2013-03-26 22:07:00,
2013-03-26 18:12:00,44.4,27.9,30.01,WNW,303,4.0,-999.0,52,0.00,,,0.00,97,Wunderground v.1.15,2013-03-26 22:12:00,
2013-03-26 18:17:00,44.4,27.9,30.01,NW,309,4.0,-999.0,52,0.00,,,0.00,90,Wunderground v.1.15,2013-03-26 22:17:00,
2013-03-26 18:23:00,44.3,27.8,30.01,NW,309,4.0,-999.0,52,0.00,,,0.00,69,Wunderground v.1.15,2013-03-26 22:23:00,
2013-03-26 18:28:00,44.1,28.0,30.02,NNW,347,5.0,-999.0,53,0.00,,,0.00,51,Wunderground v.1.15,2013-03-26 22:28:00,
2013-03-26 18:34:00,44.0,28.0,30.02,NNW,346,5.0,-999.0,53,0.00,,,0.00,44,Wunderground v.1.15,2013-03-26 22:34:00,
2013-03-26 18:39:00,43.9,27.9,30.02,NNW,338,4.0,-999.0,53,0.00,,,0.00,39,Wunderground v.1.15,2013-03-26 22:39:00,
2013-03-26 18:45:00,43.8,28.2,30.02,NNE,30,3.0,-999.0,54,0.00,,,0.00,37,Wunderground v.1.15,2013-03-26 22:45:00,
2013-03-26 18:50:00,43.7,27.2,30.03,WSW,256,4.0,-999.0,52,0.00,,,0.00,39,Wunderground v.1.15,2013-03-26 22:50:00,
2013-03-26 18:55:00,43.6,27.6,30.03,NW,323,4.0,-999.0,53,0.00,,,0.00,39,Wunderground v.1.15,2013-03-26 22:55:00,
2013-03-26 19:01:00,43.5,27.5,30.03,NNW,346,4.0,-999.0,53,0.00,,,0.00,26,Wunderground v.1.15,2013-03-26 23:01:00,
2013-03-26 19:06:00,43.4,27.4,30.04,NNW,329,4.0,-999.0,53,0.00,,,0.00,23,Wunderground v.1.15,2013-03-26 23:06:00,
2013-03-26 19:12:00,43.3,27.8,30.04,NNW,348,3.0,-999.0,54,0.00,,,0.00,23,Wunderground v.1.15,2013-03-26 23:12:00,
2013-03-26 19:18:00,43.2,27.7,30.04,NW,309,2.0,-999.0,54,0.00,,,0.00,19,Wunderground v.1.15,2013-03-26 23:18:00,
2013-03-26 19:23:00,43.1,27.6,30.04,NW,317,2.0,-999.0,54,0.00,,,0.00,14,Wunderground v.1.15,2013-03-26 23:23:00,
2013-03-26 19:28:00,43.0,27.9,30.05,NNW,336,2.0,-999.0,55,0.00,,,0.00,9,Wunderground v.1.15,2013-03-26 23:28:00,
2013-03-26 19:34:00,42.8,27.7,30.05,NNW,338,2.0,-999.0,55,0.00,,,0.00,5,Wunderground v.1.15,2013-03-26 23:34:00,
2013-03-26 19:39:00,42.7,27.6,30.05,NW,312,2.0,-999.0,55,0.00,,,0.00,0,Wunderground v.1.15,2013-03-26 23:39:00,
2013-03-26 19:45:00,42.4,27.4,30.05,NNW,343,3.0,-999.0,55,0.00,,,0.00,0,Wunderground v.1.15,2013-03-26 23:45:00,
2013-03-26 19:50:00,42.2,27.2,30.05,WNW,283,2.0,-999.0,55,0.00,,,0.00,0,Wunderground v.1.15,2013-03-26 23:50:00,
2013-03-26 19:56:00,42.0,27.0,30.05,WNW,301,3.0,-999.0,55,0.00,,,0.00,0,Wunderground v.1.15,2013-03-26 23:56:00,
2013-03-26 20:01:00,41.9,26.9,30.06,NNW,344,4.0,-999.0,55,0.00,,,0.00,0,Wunderground v.1.15,2013-03-27 00:01:00,
2013-03-26 20:06:00,41.7,27.1,30.06,NNW,334,4.0,-999.0,56,0.00,,,0.00,0,Wunderground v.1.15,2013-03-27 00:06:00,
2013-03-26 20:12:00,41.5,27.0,30.06,NNW,337,3.0,-999.0,56,0.00,,,0.00,0,Wunderground v.1.15,2013-03-27 00:12:00,
2013-03-26 20:18:00,41.3,27.2,30.06,NNW,343,1.0,-999.0,57,0.00,,,0.00,0,Wunderground v.1.15,2013-03-27 00:18:00,
2013-03-26 20:23:00,41.1,27.0,30.07,NNW,340,1.0,-999.0,57,0.00,,,0.00,0,Wunderground v.1.15,2013-03-27 00:23:00,
2013-03-26 20:28:00,41.0,26.9,30.07,NW,311,2.0,-999.0,57,0.00,,,0.00,0,Wunderground v.1.15,2013-03-27 00:28:00,
2013-03-26 20:34:00,40.9,27.2,30.07,WNW,298,1.0,-999.0,58,0.00,,,0.00,0,Wunderground v.1.15,2013-03-27 00:34:00,
2013-03-26 20:39:00,40.7,27.1,30.08,WNW,301,1.0,-999.0,58,0.00,,,0.00,0,Wunderground v.1.15,2013-03-27 00:39:00,
2013-03-26 20:45:00,40.5,27.3,30.08,WSW,241,0.0,-999.0,59,0.00,,,0.00,0,Wunderground v.1.15,2013-03-27 00:45:00,
2013-03-26 20:50:00,40.4,27.2,30.08,WNW,290,0.0,-999.0,59,0.00,,,0.00,0,Wunderground v.1.15,2013-03-27 00:50:00,
2013-03-26 20:56:00,40.2,27.4,30.08,North,360,1.0,-999.0,60,0.00,,,0.00,0,Wunderground v.1.15,2013-03-27 00:56:00,
2013-03-26 21:01:00,40.1,27.3,30.09,WNW,296,1.0,-999.0,60,0.00,,,0.00,0,Wunderground v.1.15,2013-03-27 01:01:00,
2013-03-26 21:07:00,39.9,27.1,30.09,NW,315,1.0,-999.0,60,0.00,,,0.00,0,Wunderground v.1.15,2013-03-27 01:07:00,
2013-03-26 21:13:00,39.7,27.3,30.09,NW,307,1.0,-999.0,61,0.00,,,0.00,0,Wunderground v.1.15,2013-03-27 01:13:00,
2013-03-26 21:18:00,39.5,27.5,30.10,West,270,1.0,-999.0,62,0.00,,,0.00,0,Wunderground v.1.15,2013-03-27 01:18:00,
2013-03-26 21:23:00,39.4,27.5,30.10,NW,323,2.0,-999.0,62,0.00,,,0.00,0,Wunderground v.1.15,2013-03-27 01:23:00,
2013-03-26 21:28:00,39.3,27.4,30.10,West,279,2.0,-999.0,62,0.00,,,0.00,0,Wunderground v.1.15,2013-03-27 01:28:00,
2013-03-26 21:34:00,39.2,27.3,30.10,North,355,2.0,-999.0,62,0.00,,,0.00,0,Wunderground v.1.15,2013-03-27 01:34:00,
2013-03-26 21:39:00,39.1,27.2,30.10,NW,304,2.0,-999.0,62,0.00,,,0.00,0,Wunderground v.1.15,2013-03-27 01:39:00,
2013-03-26 21:45:00,38.9,27.4,30.11,NW,308,2.0,-999.0,63,0.00,,,0.00,0,Wunderground v.1.15,2013-03-27 01:45:00,
2013-03-26 21:52:00,38.8,27.3,30.11,WNW,299,1.0,-999.0,63,0.00,,,0.00,0,Wunderground v.1.15,2013-03-27 01:52:00,
2013-03-26 21:58:00,38.7,27.6,30.11,WNW,284,1.0,-999.0,64,0.00,,,0.00,0,Wunderground v.1.15,2013-03-27 01:58:00,
2013-03-26 22:03:00,38.6,27.5,30.12,SW,226,2.0,-999.0,64,0.00,,,0.00,0,Wunderground v.1.15,2013-03-27 02:03:00,
2013-03-26 22:09:00,38.4,27.3,30.12,WNW,284,2.0,-999.0,64,0.00,,,0.00,0,Wunderground v.1.15,2013-03-27 02:09:00,
2013-03-26 22:15:00,38.3,27.2,30.12,WNW,296,3.0,-999.0,64,0.00,,,0.00,0,Wunderground v.1.15,2013-03-27 02:15:00,
2013-03-26 22:20:00,38.3,27.2,30.12,WSW,258,2.0,-999.0,64,0.00,,,0.00,0,Wunderground v.1.15,2013-03-27 02:20:00,
2013-03-26 22:25:00,38.2,27.5,30.12,WNW,296,1.0,-999.0,65,0.00,,,0.00,0,Wunderground v.1.15,2013-03-27 02:25:00,
2013-03-26 22:31:00,38.0,27.3,30.13,West,275,1.0,-999.0,65,0.00,,,0.00,0,Wunderground v.1.15,2013-03-27 02:31:00,
2013-03-26 22:36:00,38.0,27.3,30.13,NW,307,2.0,-999.0,65,0.00,,,0.00,0,Wunderground v.1.15,2013-03-27 02:36:00,
2013-03-26 22:42:00,37.9,27.2,30.13,NW,316,3.0,-999.0,65,0.00,,,0.00,0,Wunderground v.1.15,2013-03-27 02:42:00,
2013-03-26 22:47:00,37.8,27.1,30.13,West,279,2.0,-999.0,65,0.00,,,0.00,0,Wunderground v.1.15,2013-03-27 02:47:00,
2013-03-26 22:53:00,37.7,27.0,30.13,NW,319,1.0,-999.0,65,0.00,,,0.00,0,Wunderground v.1.15,2013-03-27 02:53:00,
2013-03-26 22:58:00,37.5,26.8,30.13,NW,309,2.0,-999.0,65,0.00,,,0.00,0,Wunderground v.1.15,2013-03-27 02:58:00,
2013-03-26 23:04:00,37.5,27.2,30.13,West,267,2.0,-999.0,66,0.00,,,0.00,0,Wunderground v.1.15,2013-03-27 03:04:00,
2013-03-26 23:09:00,37.4,27.1,30.13,West,267,1.0,-999.0,66,0.00,,,0.00,0,Wunderground v.1.15,2013-03-27 03:09:00,
2013-03-26 23:14:00,37.3,27.0,30.13,WSW,241,1.0,-999.0,66,0.00,,,0.00,0,Wunderground v.1.15,2013-03-27 03:14:00,
2013-03-26 23:20:00,37.2,26.9,30.13,WNW,290,2.0,-999.0,66,0.00,,,0.00,0,Wunderground v.1.15,2013-03-27 03:20:00,
2013-03-26 23:25:00,37.2,26.9,30.13,West,268,2.0,-999.0,66,0.00,,,0.00,0,Wunderground v.1.15,2013-03-27 03:25:00,
2013-03-26 23:30:00,37.1,26.8,30.13,WNW,284,2.0,-999.0,66,0.00,,,0.00,0,Wunderground v.1.15,2013-03-27 03:30:00,
2013-03-26 23:35:00,37.1,27.2,30.14,NNE,20,2.0,-999.0,67,0.00,,,0.00,0,Wunderground v.1.15,2013-03-27 03:35:00,
2013-03-26 23:41:00,37.1,27.2,30.14,NW,311,1.0,-999.0,67,0.00,,,0.00,0,Wunderground v.1.15,2013-03-27 03:41:00,
2013-03-26 23:46:00,37.0,27.1,30.14,West,281,1.0,-999.0,67,0.00,,,0.00,0,Wunderground v.1.15,2013-03-27 03:46:00,
2013-03-26 23:51:00,37.0,27.1,30.14,WNW,283,1.0,-999.0,67,0.00,,,0.00,0,Wunderground v.1.15,2013-03-27 03:51:00,
2013-03-26 23:57:00,36.9,27.0,30.14,West,266,2.0,-999.0,67,0.00,,,0.00,0,Wunderground v.1.15,2013-03-27 03:57:00,